INTELSAT 21 (IS-21)     
1 38749U 12045A   19261.47439380 -.00000288  00000-0  00000+0 0  9998
2 38749   0.0205 244.8180 0002282 297.2056 287.8709  1.00271587 25933
BLOCK DM-SL R/B         
1 38750U 12045B   19261.01752411  .00000680  00000-0  34148-3 0  9992
2 38750   0.2013  90.9529 7187386 262.8926   0.7340  2.38663216 60793